When you browse on this site, cookies collect data to enhance your experience and personalize the content and advertising you see.
Visit our Privacy Policy to learn more. By continuing to use the site, you agree to this use of cookies and data.
  • In Austria
  • List of Countries
  • For 7 days
  • Water Temperature
  • Weather Map
  • News
  • Weather Widgets
  • user-avatar
    Login

    Hourly Weather Phohan

    Today, 5 April, Sunday

    Time Temperature Precipitation Wind Pressure Humidity
    00:00 +5°C° 0.1 mm 3 mps 761 mmHg 81%
    01:00 +5°C° 0 mm 3 mps 761 mmHg 79%
    02:00 +5°C° 0 mm 2 mps 761 mmHg 78%
    03:00 +4°C° 0 mm 2 mps 761 mmHg 77%
    04:00 +4°C° 0 mm 2 mps 761 mmHg 78%
    05:00 +3°C° 0 mm 2 mps 762 mmHg 78%
    06:00 +3°C° 0 mm 2 mps 762 mmHg 79%
    07:00 +5°C° 0 mm 2 mps 762 mmHg 68%
    08:00 +6°C° 0 mm 2 mps 762 mmHg 58%
    09:00 +8°C° 0 mm 2 mps 762 mmHg 44%
    10:00 +10°C° 0 mm 2 mps 762 mmHg 38%
    11:00 +13°C° 0 mm 2 mps 762 mmHg 32%
    12:00 +14°C° 0 mm 1 mps 762 mmHg 26%
    13:00 +15°C° 0 mm 2 mps 762 mmHg 24%
    14:00 +14°C° 0 mm 3 mps 761 mmHg 22%
    15:00 +16°C° 0 mm 3 mps 761 mmHg 19%
    16:00 +14°C° 0 mm 3 mps 761 mmHg 25%
    17:00 +13°C° 0 mm 3 mps 761 mmHg 30%
    18:00 +12°C° 0 mm 3 mps 761 mmHg 35%
    19:00 +10°C° 0 mm 2 mps 762 mmHg 41%
    20:00 +9°C° 0 mm 2 mps 762 mmHg 46%
    21:00 +8°C° 0 mm 1 mps 762 mmHg 51%
    22:00 +8°C° 0 mm 1 mps 762 mmHg 52%
    23:00 +7°C° 0 mm 1 mps 763 mmHg 53%

    Tomorrow, 6 April, Monday

    Time Temperature Precipitation Wind Pressure Humidity
    00:00 +7°C° 0 mm 1 mps 763 mmHg 53%
    01:00 +5°C° 0 mm 2 mps 762 mmHg 51%
    02:00 +5°C° 0 mm 2 mps 762 mmHg 48%
    03:00 +4°C° 0 mm 2 mps 762 mmHg 46%
    04:00 +4°C° 0 mm 2 mps 762 mmHg 46%
    05:00 +3°C° 0 mm 2 mps 762 mmHg 46%
    06:00 +3°C° 0 mm 2 mps 762 mmHg 46%
    07:00 +5°C° 0 mm 2 mps 762 mmHg 41%
    08:00 +8°C° 0 mm 2 mps 762 mmHg 36%
    09:00 +10°C° 0 mm 2 mps 762 mmHg 31%
    10:00 +13°C° 0 mm 2 mps 762 mmHg 28%
    11:00 +15°C° 0 mm 2 mps 761 mmHg 25%
    12:00 +16°C° 0 mm 3 mps 761 mmHg 23%
    13:00 +17°C° 0 mm 3 mps 761 mmHg 23%
    14:00 +17°C° 0 mm 3 mps 760 mmHg 23%
    15:00 +18°C° 0 mm 4 mps 759 mmHg 23%
    16:00 +17°C° 0 mm 3 mps 759 mmHg 26%
    17:00 +16°C° 0 mm 3 mps 759 mmHg 30%
    18:00 +14°C° 0 mm 3 mps 759 mmHg 33%
    19:00 +13°C° 0 mm 3 mps 759 mmHg 35%
    20:00 +11°C° 0 mm 3 mps 759 mmHg 37%
    21:00 +10°C° 0 mm 3 mps 760 mmHg 39%
    22:00 +10°C° 0 mm 4 mps 759 mmHg 42%
    23:00 +8°C° 0 mm 4 mps 759 mmHg 45%

    Day after tomorrow, 7 April, Tuesday

    Time Temperature Precipitation Wind Pressure Humidity
    00:00 +7°C° 0 mm 4 mps 759 mmHg 47%
    01:00 +7°C° 0 mm 4 mps 759 mmHg 48%
    02:00 +8°C° 0 mm 3 mps 758 mmHg 49%
    03:00 +8°C° 0 mm 3 mps 758 mmHg 49%
    04:00 +7°C° 0 mm 3 mps 758 mmHg 49%
    05:00 +7°C° 0 mm 3 mps 758 mmHg 48%
    06:00 +7°C° 0 mm 3 mps 758 mmHg 48%
    07:00 +8°C° 0 mm 4 mps 758 mmHg 46%
    08:00 +11°C° 0 mm 4 mps 758 mmHg 44%
    09:00 +13°C° 0 mm 5 mps 758 mmHg 42%
    10:00 +15°C° 0 mm 5 mps 757 mmHg 39%
    11:00 +16°C° 0 mm 5 mps 757 mmHg 35%
    12:00 +19°C° 0 mm 5 mps 757 mmHg 32%
    13:00 +20°C° 0 mm 5 mps 756 mmHg 32%
    14:00 +20°C° 0 mm 5 mps 756 mmHg 32%
    15:00 +21°C° 0 mm 6 mps 755 mmHg 32%
    16:00 +20°C° 0 mm 5 mps 755 mmHg 35%
    17:00 +19°C° 0 mm 5 mps 755 mmHg 38%
    18:00 +17°C° 0 mm 5 mps 755 mmHg 41%
    19:00 +15°C° 0 mm 4 mps 756 mmHg 47%
    20:00 +13°C° 0 mm 4 mps 756 mmHg 54%
    21:00 +12°C° 0 mm 3 mps 756 mmHg 60%
    22:00 +11°C° 0 mm 3 mps 756 mmHg 64%
    23:00 +10°C° 0 mm 3 mps 757 mmHg 67%

    8 April, Wednesday

    Time Temperature Precipitation Wind Pressure Humidity
    00:00 +9°C° 0 mm 3 mps 757 mmHg 70%
    01:00 +9°C° 0 mm 3 mps 757 mmHg 70%
    02:00 +7°C° 0 mm 4 mps 757 mmHg 70%
    03:00 +6°C° 0 mm 4 mps 757 mmHg 70%
    04:00 +6°C° 0 mm 4 mps 757 mmHg 69%
    05:00 +5°C° 0 mm 4 mps 757 mmHg 67%
    06:00 +4°C° 0 mm 3 mps 758 mmHg 65%
    07:00 +6°C° 0 mm 4 mps 758 mmHg 55%
    08:00 +8°C° 0 mm 4 mps 758 mmHg 44%
    09:00 +11°C° 0 mm 4 mps 759 mmHg 34%
    10:00 +12°C° 0 mm 4 mps 759 mmHg 30%
    11:00 +13°C° 0 mm 4 mps 759 mmHg 25%
    12:00 +14°C° 0 mm 5 mps 759 mmHg 21%
    13:00 +15°C° 0 mm 5 mps 759 mmHg 21%
    14:00 +15°C° 0 mm 5 mps 759 mmHg 20%
    15:00 +15°C° 0 mm 5 mps 759 mmHg 19%
    16:00 +15°C° 0 mm 5 mps 759 mmHg 21%
    17:00 +14°C° 0 mm 4 mps 759 mmHg 24%
    18:00 +13°C° 0 mm 4 mps 760 mmHg 26%
    19:00 +11°C° 0 mm 3 mps 760 mmHg 29%
    20:00 +10°C° 0 mm 2 mps 761 mmHg 33%
    21:00 +9°C° 0 mm 1 mps 761 mmHg 37%
    22:00 +8°C° 0 mm 2 mps 761 mmHg 39%
    23:00 +7°C° 0 mm 2 mps 761 mmHg 41%

    9 April, Thursday

    Time Temperature Precipitation Wind Pressure Humidity
    00:00 +6°C° 0 mm 2 mps 761 mmHg 43%
    01:00 +5°C° 0 mm 3 mps 761 mmHg 44%
    02:00 +4°C° 0 mm 3 mps 761 mmHg 46%
    03:00 +4°C° 0 mm 3 mps 761 mmHg 47%
    04:00 +3°C° 0 mm 3 mps 761 mmHg 48%
    05:00 +3°C° 0 mm 3 mps 762 mmHg 50%
    06:00 +3°C° 0 mm 3 mps 762 mmHg 52%
    07:00 +5°C° 0 mm 4 mps 762 mmHg 46%
    08:00 +7°C° 0 mm 4 mps 762 mmHg 41%
    09:00 +9°C° 0 mm 5 mps 763 mmHg 35%
    10:00 +12°C° 0 mm 4 mps 763 mmHg 31%
    11:00 +13°C° 0 mm 4 mps 762 mmHg 27%
    12:00 +16°C° 0 mm 3 mps 762 mmHg 23%
    13:00 +16°C° 0 mm 3 mps 762 mmHg 22%
    14:00 +17°C° 0 mm 3 mps 762 mmHg 21%
    15:00 +18°C° 0 mm 3 mps 762 mmHg 21%
    16:00 +17°C° 0 mm 4 mps 762 mmHg 25%
    17:00 +15°C° 0 mm 4 mps 762 mmHg 29%
    18:00 +14°C° 0 mm 4 mps 762 mmHg 33%
    19:00 +12°C° 0 mm 3 mps 763 mmHg 39%
    20:00 +11°C° 0 mm 3 mps 763 mmHg 45%
    21:00 +9°C° 0 mm 3 mps 764 mmHg 50%
    22:00 +9°C° 0 mm 2 mps 764 mmHg 52%
    23:00 +8°C° 0 mm 2 mps 764 mmHg 54%

    10 April, Friday

    Time Temperature Precipitation Wind Pressure Humidity
    00:00 +8°C° 0 mm 2 mps 764 mmHg 56%
    01:00 +8°C° 0 mm 1 mps 764 mmHg 56%
    02:00 +8°C° 0 mm 1 mps 764 mmHg 57%
    03:00 +8°C° 0 mm 1 mps 764 mmHg 57%
    04:00 +6°C° 0 mm 2 mps 764 mmHg 57%
    05:00 +6°C° 0 mm 2 mps 764 mmHg 56%
    06:00 +6°C° 0 mm 2 mps 764 mmHg 56%
    07:00 +8°C° 0 mm 2 mps 764 mmHg 51%
    08:00 +10°C° 0 mm 2 mps 764 mmHg 47%
    09:00 +12°C° 0 mm 2 mps 764 mmHg 42%
    10:00 +13°C° 0 mm 2 mps 763 mmHg 37%
    11:00 +13°C° 0 mm 3 mps 763 mmHg 31%
    12:00 +16°C° 0 mm 3 mps 762 mmHg 26%
    13:00 +16°C° 0 mm 3 mps 762 mmHg 27%
    14:00 +17°C° 0 mm 3 mps 761 mmHg 28%
    15:00 +17°C° 0 mm 3 mps 761 mmHg 29%
    16:00 +17°C° 0 mm 3 mps 761 mmHg 32%
    17:00 +16°C° 0 mm 3 mps 761 mmHg 35%
    18:00 +14°C° 0 mm 3 mps 760 mmHg 38%
    19:00 +13°C° 0 mm 4 mps 761 mmHg 41%
    20:00 +11°C° 0 mm 4 mps 761 mmHg 44%
    21:00 +10°C° 0 mm 4 mps 762 mmHg 47%
    22:00 +8°C° 0 mm 4 mps 761 mmHg 50%
    23:00 +7°C° 0 mm 4 mps 761 mmHg 53%
    Show more